Weather History for Sandspit, BC

Change the Weather History Date:

Tuesday, March 19, 2013

  Actual Average Record
Temperature  
Mean Temperature 37 °F -  
Max Temperature 41 °F 48 °F 51 °F (1998)
Min Temperature 33 °F 39 °F 26 °F (2002)
Degree Days  
Heating Degree Days 28    
Moisture  
Dew Point 34 °F    
Average Humidity 90    
Maximum Humidity 100    
Minimum Humidity 75    
Precipitation  
Precipitation 0.00 in 0.30 in - ()
Sea Level Pressure  
Sea Level Pressure 29.74 in    
Wind  
Wind Speed 10 mph ()    
Max Wind Speed 23 mph    
Max Gust Speed 28 mph    
Visibility 8.1 miles    
Events Rain , Snow    
Averages and records for this station are not official NWS values.
T = Trace of Precipitation, MM = Missing Value Source: Averaged Metar Reports

Daily Weather History Graph

Daily Weather History Graph

Search for Another Location

Airport:

Trip Planner

Search our weather history database for the weather conditions in past years. The results will help you decide how hot, cold, wet, or windy it might be!

Date:

Astronomy

Mar. 19, 2013 Rise Set
Actual Time 7:51 AM PDT 7:59 PM PDT
Civil Twilight 7:16 AM PDT 8:34 PM PDT
Nautical Twilight 6:35 AM PDT 9:15 PM PDT
Astronomical Twilight 5:52 AM PDT 9:58 PM PDT
Moon 12:01 PM PDT (3/19) 3:38 AM PDT (3/19)
Length of Visible Light 13h 17m
Length of Day
12h 08m
Waxing Crescent, 51% of the Moon is Illuminated
Mar 19
Waxing Crescent
Mar 27
Full
Apr 2
Last Quarter
Apr 10
New
Apr 18
First Quarter

Hourly Weather History & Observations

Time (PDT) Temp. Windchill Dew Point Humidity Pressure Visibility Wind Dir Wind Speed Gust Speed Precip Events Conditions
12:00 AM 37.4 °F 30.3 °F 30.2 °F 75% 30.04 in 9.0 mi South 10.4 mph - N/A   Overcast
1:00 AM 37.4 °F 29.8 °F 32.0 °F 81% 30.02 in 9.0 mi South 11.5 mph 17.3 mph N/A   Overcast
1:51 AM 35.6 °F 27.5 °F 32.0 °F 87% 30.00 in 9.0 mi South 11.5 mph - N/A Rain Light Rain
2:00 AM 35.6 °F 28.0 °F 32.0 °F 87% 30.00 in 9.0 mi SSE 10.4 mph - N/A Rain Light Rain
2:03 AM 35.6 °F 27.5 °F 32.0 °F 87% 30.00 in 9.0 mi SSE 11.5 mph - N/A   Overcast
2:32 AM 35.6 °F 28.0 °F 32.0 °F 87% 29.99 in 9.0 mi SSW 10.4 mph 18.4 mph N/A Rain Light Rain
2:46 AM 35.6 °F 29.2 °F 32.0 °F 87% 29.99 in 9.0 mi SSW 8.1 mph - N/A   Overcast
3:00 AM 35.6 °F 27.1 °F 32.0 °F 87% 29.99 in 9.0 mi South 12.7 mph - N/A   Overcast
3:03 AM 35.6 °F 26.6 °F 32.0 °F 87% 29.99 in 9.0 mi South 13.8 mph - N/A Rain Light Rain
3:35 AM 33.8 °F 26.4 °F 32.0 °F 93% 29.96 in 9.0 mi South 9.2 mph - N/A   Overcast
3:53 AM 35.6 °F 27.1 °F 33.8 °F 93% 29.97 in 9.0 mi South 12.7 mph - N/A Rain Light Rain
4:00 AM 35.6 °F 28.0 °F 33.8 °F 93% 29.97 in 9.0 mi South 10.4 mph 18.4 mph N/A Rain Light Rain
4:30 AM 35.6 °F 29.9 °F 33.8 °F 93% 29.95 in 9.0 mi South 6.9 mph - N/A   Overcast
4:46 AM 35.6 °F 28.0 °F 33.8 °F 93% 29.95 in 9.0 mi South 10.4 mph - N/A Rain Light Rain
4:59 AM 35.6 °F 27.1 °F 32.0 °F 87% 29.94 in 8.0 mi SSE 12.7 mph - N/A Rain Rain
5:00 AM 35 °F - - % 29.94 in - SSE 9.2 mph - -  
5:00 AM 35.6 °F 27.1 °F 32.0 °F 87% 29.94 in 8.0 mi SSE 12.7 mph - N/A Rain Rain
5:12 AM 35.6 °F 28.6 °F 32.0 °F 87% 29.93 in 8.0 mi South 9.2 mph - N/A Rain Light Rain
5:36 AM 35.6 °F 28.0 °F 33.8 °F 93% 29.91 in 9.0 mi SSE 10.4 mph - N/A   Overcast
6:00 AM 35.6 °F 28.6 °F 33.8 °F 93% 29.90 in 9.0 mi SSE 9.2 mph - N/A   Overcast
6:58 AM 35.6 °F 28.0 °F 33.8 °F 93% 29.88 in 9.0 mi SSE 10.4 mph - N/A Rain Light Rain
7:00 AM 35.6 °F 28.0 °F 33.8 °F 93% 29.88 in 9.0 mi SSE 10.4 mph - N/A Rain Light Rain
8:00 AM 37.4 °F 28.5 °F 35.6 °F 93% 29.84 in 9.0 mi SSE 15.0 mph - N/A Rain Light Rain
8:49 AM 37.4 °F 28.2 °F 35.6 °F 93% 29.81 in 9.0 mi SSE 16.1 mph - N/A   Overcast
9:00 AM 37.4 °F 29.3 °F 35.6 °F 93% 29.81 in 9.0 mi South 12.7 mph 18.4 mph N/A   Overcast
9:19 AM 37.4 °F 29.3 °F 35.6 °F 93% 29.81 in 9.0 mi SSE 12.7 mph - N/A Rain Light Rain
10:00 AM 37.4 °F 30.3 °F 35.6 °F 93% 29.79 in 9.0 mi SSE 10.4 mph - N/A Rain Light Rain
10:26 AM 37.4 °F 30.8 °F 35.6 °F 93% 29.79 in 9.0 mi SSE 9.2 mph - N/A   Overcast
10:29 AM 37.4 °F 31.4 °F 35.6 °F 93% 29.79 in 9.0 mi SSE 8.1 mph - N/A Rain Light Rain
10:54 AM 39.2 °F 32.5 °F 35.6 °F 87% 29.79 in 9.0 mi South 10.4 mph - N/A   Overcast
11:00 AM 39 °F - - % 29.79 in - South 4.6 mph - -  
11:00 AM 39.2 °F 34.2 °F 35.6 °F 87% 29.79 in 9.0 mi South 6.9 mph - N/A   Overcast
11:34 AM 39.2 °F 33.6 °F 35.6 °F 87% 29.78 in 9.0 mi SSW 8.1 mph - N/A Rain Light Rain
12:00 PM 39.2 °F 34.2 °F 37.4 °F 93% 29.78 in 9.0 mi WSW 6.9 mph - N/A Rain Light Rain
12:03 PM 39.2 °F 35.0 °F 37.4 °F 93% 29.78 in 9.0 mi SW 5.8 mph - N/A   Mostly Cloudy
1:00 PM 41.0 °F 37.1 °F 33.8 °F 76% 29.76 in 9.0 mi WSW 5.8 mph - N/A   Overcast
1:54 PM 41.0 °F 39.0 °F 33.8 °F 76% 29.74 in 9.0 mi WSW 3.5 mph - N/A Rain Light Rain
2:00 PM 41.0 °F 37.1 °F 35.6 °F 81% 29.73 in 9.0 mi West 5.8 mph - N/A Rain Light Rain
2:03 PM 41.0 °F 37.1 °F 35.6 °F 81% 29.73 in 9.0 mi West 5.8 mph - N/A   Overcast
2:05 PM 41.0 °F 37.1 °F 35.6 °F 81% 29.73 in 9.0 mi West 5.8 mph - N/A Rain Light Rain
2:14 PM 41.0 °F 37.1 °F 35.6 °F 81% 29.73 in 9.0 mi WNW 5.8 mph - N/A   Overcast
2:20 PM 41.0 °F 38.0 °F 35.6 °F 81% 29.73 in 9.0 mi WNW 4.6 mph - N/A Rain Light Rain
3:00 PM 41.0 °F 39.0 °F 35.6 °F 81% 29.70 in 9.0 mi NNE 3.5 mph - N/A Rain Light Rain
3:20 PM 39.2 °F 33.6 °F 35.6 °F 87% 29.70 in 9.0 mi ENE 8.1 mph - N/A Rain Light Rain
3:27 PM 39.2 °F 35.0 °F 35.6 °F 87% 29.69 in 9.0 mi ENE 5.8 mph - N/A Rain Light Rain
4:00 PM 39.2 °F 33.6 °F 35.6 °F 87% 29.68 in 9.0 mi ENE 8.1 mph - N/A Rain Light Rain
4:52 PM 39.2 °F 34.2 °F 35.6 °F 87% 29.64 in 9.0 mi ENE 6.9 mph - N/A Rain Light Rain
5:00 PM 38 °F - - % 29.64 in - NE 6.9 mph - -  
5:00 PM 37.4 °F 31.4 °F 35.6 °F 93% 29.64 in 9.0 mi NE 8.1 mph - N/A Rain Light Rain
6:00 PM 37.4 °F 30.8 °F 35.6 °F 93% 29.60 in 9.0 mi NNE 9.2 mph - N/A Rain Light Rain
7:00 PM 37.4 °F 30.8 °F 35.6 °F 93% 29.56 in 9.0 mi North 9.2 mph - N/A Rain Light Rain
8:00 PM 37.4 °F 28.9 °F 35.6 °F 93% 29.54 in 9.0 mi North 13.8 mph - N/A Rain Light Rain
8:54 PM 37.4 °F 27.2 °F 35.6 °F 93% 29.52 in 7.0 mi NNW 19.6 mph - N/A Rain Light Rain
9:00 PM 37.4 °F 27.8 °F 35.6 °F 93% 29.52 in 7.0 mi NNW 17.3 mph - N/A Rain Light Rain
9:34 PM 35.6 °F 25.9 °F 33.8 °F 93% 29.52 in 5.0 mi NNW 16.1 mph - N/A Rain Light Rain
9:38 PM 33.8 °F 22.8 °F 33.8 °F 100% 29.52 in 3.0 mi NW 18.4 mph - N/A Rain , Snow Light Snow
9:43 PM 33.8 °F 23.2 °F 33.8 °F 100% 29.52 in 3.0 mi NW 17.3 mph - N/A Snow Light Snow
9:49 PM 33.8 °F 23.2 °F 33.8 °F 100% 29.52 in 3.0 mi NW 17.3 mph - N/A Snow Light Snow
9:53 PM 33.8 °F 23.9 °F 33.8 °F 100% 29.52 in 3.0 mi NW 15.0 mph 20.7 mph N/A Snow Light Snow
10:00 PM 33.8 °F 23.5 °F 33.8 °F 100% 29.52 in 4.0 mi NNW 16.1 mph - N/A Snow Light Snow
10:14 PM 33.8 °F 22.8 °F 33.8 °F 100% 29.51 in 6.0 mi NW 18.4 mph - N/A Snow Light Snow
10:28 PM 35.6 °F 24.2 °F 33.8 °F 93% 29.50 in 6.0 mi NNW 21.9 mph - N/A Snow Light Snow
10:35 PM 35.6 °F 24.0 °F 33.8 °F 93% 29.50 in 5.0 mi NNW 23.0 mph - N/A Snow Light Snow
10:38 PM 35.6 °F 24.8 °F 33.8 °F 93% 29.50 in 5.0 mi NNW 19.6 mph 27.6 mph N/A Snow Light Snow
10:51 PM 35.6 °F 25.5 °F 33.8 °F 93% 29.50 in 6.0 mi NW 17.3 mph 25.3 mph N/A Snow Light Snow
10:55 PM 35.6 °F 25.2 °F 33.8 °F 93% 29.50 in 7.0 mi NW 18.4 mph 25.3 mph N/A Rain , Snow Light Snow
11:00 PM 35 °F - - % 29.50 in - NW 16.1 mph - -  
11:00 PM 33.8 °F 22.8 °F 33.8 °F 100% 29.50 in 8.0 mi NW 18.4 mph - N/A Rain Rain
11:12 PM 33.8 °F 22.5 °F 33.8 °F 100% 29.49 in 9.0 mi NNW 19.6 mph - N/A Rain Light Rain
11:19 PM 35.6 °F 24.8 °F 33.8 °F 93% 29.49 in 9.0 mi NW 19.6 mph - N/A Rain Light Rain
11:37 PM 33.8 °F 22.8 °F 33.8 °F 100% 29.49 in 9.0 mi NW 18.4 mph 24.2 mph N/A Rain Light Rain